Zurück zum Katalog

STARLINK-35294

AktivKommunikationVLEO
NORAD 65755·PAYLOAD·🇺🇸 United States

Gestartet Sep 25, 2025 von Cape Canaveral Space Force Station

Loading…

Nächste Überflüge (nächste 24 Stunden)

TLE

AktuellSource: CelesTrak SupGP

Epoche: Sep 14, 2026, 14:55 UTC

1 65755C 25216X   26257.62201389  .00065720  00000+0  19418-2 0  2578
2 65755  53.1568 173.2595 0001210 104.9261  87.6931 15.34356171    18

Verfolge STARLINK-35294 in Echtzeit mit AllMySat

Download on the App Store